map of PFO home
Great Circle Mapper logo
PFO - Airport
Location
City:  Paphos, Cyprus
Name:Paphos International Airport
ICAO / IATA:LCPH / PFO

Details
Type:Airport (Aerodrome, Airfield)
Use:Public/Civil, International (customs port of entry)
Latitude:3443'05"N (34.718039)
Longitude:3229'09"E (32.485731)
Datum:WGS 1984
Elevation:41 ft (12 m)
Runways:1
Longest:8858 × 148 ft (2700 × 45 m), paved

Time
Time Zone:UTC+2 (DST+3)
Local Time:

Weather
METAR:LCPH 010000Z VRB05KT 9999 TS FEW020CB BKN031 17/14 Q1013
TAF:LCPH 312330Z 0100/0124 02007KT 9999 SCT025 PROB30
TEMPO 0100/0113 VRB18G30KT 4000 TSRA BKN020CB
BECMG 0105/0108 29012KT
BECMG 0115/0118 02008KT

Related Locations
Nearby:
Farthest:NTAV: 11684 mi / 18803 km
Raivavae, Tubuai Islands, Austral Islands, PF

Find:

   beyond  
but within

Other Information
Maps:
NOTAMs:
Links:
Sources:

  
flag of Cyprus   

Sectional Chart

Flight Planning
at skyvector.com

Satellite Image

Google Maps Satellite View

 

Copyright © 2004-2014 Karl L. Swartz. All rights reserved.
The Great Circle Mapper name and logo are trademarks of the Great Circle Mapper.
All other trademarks mentioned herein belong to their respective owners.
Please see credits for attibutions and further copyright information.

  Follow gcmap on Facebook Follow gcmap on Twitter

hCard Microformat

Geo Microformat